www.pogodaiklimat.ru

Погода и климат >> Архив погоды >> Канада >> Онтарио >> Сен-Пьер


ПОГОДА в Сен-Пьере

  • Прогноз погоды в Сен-Пьере
  • Монитор погоды в Сен-Пьере

АРХИВ ПОГОДЫ в Сен-Пьере

Время (UTC), дата Ветер
(напр.,м/с)
 
Видим.   Явления Облачность Т
(С)
Тd
(С)
f
(%)
Тe
(С)
Тes
(С)
Комфортность P
(гПа)
Po
(гПа)
Тmin
(С)
Tmax
(С)
R
(мм)
R24
(мм)
S
(см)
06 19.04 ЮЗ 5
{9}
18 км 10/0
[]
-0.5 -1.2 95 -7 -7 1026.3 1025.4 -1.4 +3.7
09 19.04 ЮЗ 5
{7}
20 км 9/0
[As trans Ci fib]
-0.4 -1.0 96 -7 -7 1026.6 1025.7
12 19.04 Ю 7
{10}
19 км 10/0 2000 м
[]
+1.3 0.0 91 -6 -5 1026.1 1025.2
15 19.04 Ю 12-17
{17}
2500 м слаб. снег 10/9 120 м
[Frnb]
0.0 -0.3 98 -9 -9 1023.5 1022.6 0.2
18 19.04 Ю 14-21
{21}
3200 м слаб. дождь 10/10 150 м
[Frnb]
+0.7 +0.6 99 -9 -9 1017.9 1017.0 -0.8 +1.6 5
21 19.04 Ю 14-21
{23}
1800 м слаб. дождь 10/10 120 м
[Frnb]
+2.0 +1.9 99 -7 -7 1014.3 1013.4 2
00 20.04 ЮЗ 10
{17}
400 м туман {дождь} 10/10 30 м
[Frnb]
+3.1 +3.0 99 -4 -4 1013.8 1012.9 0.2
03 20.04 ЮЗ 10
{17}
200 м туман ?/? +3.2 +3.1 99 -4 -4 1013.5 1012.6 0.2
06 20.04 З 5
{10}
400 м морось ?/? +3.8 +3.7 99 -2 -2 1013.9 1013.0 +0.7 +4.0 0.0
09 20.04 ЮЗ 4
{6}
500 м туман 10/10 90 м
[Frnb]
+2.1 +2.0 99 -3 -3 1016.3 1015.4 0.4
12 20.04 ЮЗ 4
{6}
1200 м в посл. час дождь {морось} 10/10 60 м
[Frnb]
+2.5 +2.4 99 -2 -2 1018.2 1017.3 0.6
15 20.04 ЮЗ 4
{6}
1000 м слаб. дождь {туман} 10/10 60 м
[Frnb]
+2.4 +2.3 99 -3 -3 1019.7 1018.8 1
18 20.04 ЮЗ 4
{5}
400 м слаб. дождь {туман} 10/10 30 м
[Frnb]
+2.3 +2.2 99 -3 -3 1020.9 1020.0 +1.8 +3.8 0.8
21 20.04 ЮЗ 5
{8}
400 м туман {дождь} 10/10 30 м
[Frnb]
+2.4 +2.3 99 -3 -3 1021.9 1021.0 7
00 21.04 З 4
{9}
500 м туман {дождь} 10/10 30 м
[Frnb]
+2.2 +2.1 99 -3 -3 1024.4 1023.5
03 21.04 С 1
{4}
2500 м дымка 10/10 100 м
[]
+2.2 +2.1 99 +2 +2 1026.7 1025.8
06 21.04 СВ 1
{3}
10 км слаб. морось 10/10 50 м
[]
+2.6 +2.5 99 +1 +1 1028.6 1027.7 +1.6 +2.9 0.2
09 21.04 В 3
{5}
8000 м 10/10 90 м
[Frnb]
+2.0 +1.9 99 -3 -3 1029.7 1028.8 0.0
12 21.04 ЮВ 2
{7}
8000 м в посл. час дождь 10/10 60 м
[Frnb]
+1.4 +1.4 100 -2 -2 1030.4 1029.5 0.6
15 21.04 Ю 1
{3}
100 м туман ?/? +3.0 +2.9 99 +1 +1 1030.2 1029.3
18 21.04 Ю 2
{3}
800 м туман 10/10 30 м
[St]
+6.4 +6.1 98 +4 +4 1029.3 1028.4 +1.1 +6.7
21 21.04 ЮЗ 5
{8}
12 км {туман} 10/10 90 м
[St]
+4.9 +4.8 99 -0 -0 1028.4 1027.5
00 22.04 ЮЗ 5
{8}
12 км {туман} 10/10 90 м
[St]
+4.1 +4.0 99 -1 -1 1028.2 1027.3
03 22.04 ЮЗ 5
{8}
6000 м 10/10 50 м
[]
+4.4 +4.3 99 -1 -1 1026.6 1025.7
06 22.04 З 4
{6}
200 м туман ?/? +4.3 +4.2 99 -0 -0 1024.9 1024.0 +4.0 +6.8
09 22.04 ЮЗ 8-13
{13}
300 м туман ?/? +4.1 +4.0 99 -2 -2 1023.0 1022.1
12 22.04 З 5
{10}
300 м слаб. дождь {туман} ?/? +3.9 +3.8 99 -1 -1 1023.2 1022.3 0.2
15 22.04 З 6
{8}
600 м слаб. дождь 10/10 60 м
[Frnb]
+4.5 +4.4 99 -1 -1 1022.8 1021.9 0.8
18 22.04 З 6
{10}
800 м слаб. морось {дождь, туман} 10/10 60 м
[Frnb]
+4.4 +4.3 99 -1 -1 1022.5 1021.6 +3.7 +5.0 0.4
21 22.04 З 6
{9}
1800 м слаб. морось 10/10 60 м
[Frnb]
+3.7 +3.6 99 -2 -2 1022.2 1021.3 0.2
00 23.04 З 4
{8}
2900 м слаб. морось 10/10 300 м
[]
+2.4 +2.3 99 -3 -3 1023.1 1022.2 0.8
03 23.04 СВ 1
{4}
3900 м слаб. дождь 10/10 300 м
[]
+4.5 +4.4 99 +3 +3 1022.5 1021.6 1
06 23.04 Ю 2
{2}
4100 м дымка 10/10 600 м
[]
+3.8 +3.7 99 +1 +1 1022.2 1021.3 +2.1 +4.7 0.6
09 23.04 СВ 2
{4}
10 км в посл. час дождь 10/10 1080 м
[Sc]
+3.7 +3.6 99 +1 +1 1023.1 1022.2 0.2
12 23.04 С 5
{8}
50 км {дождь, морось} 10/10 1500 м
[Sc]
+5.8 +5.5 98 +1 +1 1024.4 1023.5 0.0
15 23.04 В 4
{7}
35 км 10/10 240 м
[Frnb]
+5.2 +4.0 92 +1 +1 1024.9 1024.0
18 23.04 В 5
{9}
11 км 10/10 50 м
[]
+3.1 +2.8 98 -2 -2 1024.4 1023.5 +2.6 +6.1 0.2
21 23.04 В 8
{12}
25 км 10/10 480 м
[Sc]
+1.8 +1.2 96 -5 -5 1023.8 1022.9 0.0
00 24.04 В 9
{14}
19 км 10/10 300 м
[]
+1.1 -0.5 89 -7 -7 1023.2 1022.3 0.0
03 24.04 В 13-21
{21}
3500 м слаб. дождь 10/10 100 м
[]
+0.2 -0.2 97 -9 -9 1019.4 1018.5 1
06 24.04 В 12-18
{20}
4800 м дымка 10/10 100 м
[]
+0.3 0.0 98 -9 -9 1016.1 1015.2 +0.2 +3.0 5
09 24.04 В 12-20
{20}
3500 м слаб. морось {дождь} 10/10 150 м
[Frnb]
+0.2 -0.1 98 -9 -9 1011.9 1011.0 2
12 24.04 В 12-20
{23}
7000 м в посл. час дождь {морось} 10/10 180 м
[Frnb]
+0.8 +0.5 98 -8 -8 1007.7 1006.8 3
15 24.04 В 8
{15}
2500 м в посл. час дождь 10/10 120 м
[Frnb]
+1.6 +1.5 99 -6 -6 1005.4 1004.5 5
18 24.04 В 2
{8}
1200 м в посл. час морось {дождь} 10/10 60 м
[Frnb]
+2.1 +2.0 99 -1 -1 1005.4 1004.5 +0.2 +2.6 0.2
21 24.04 СВ 5
{7}
900 м слаб. морось 10/10 50 м
[]
+1.6 +1.5 99 -4 -4 1007.4 1006.5 0.0
00 25.04 СВ 8
{11}
20 км в посл. час морось {туман} 10/10 330 м
[St]
+0.8 +0.7 99 -7 -7 1010.6 1009.7 0.0
03 25.04 СВ 7
{10}
30 км 10/10 400 м
[St]
+0.4 -0.5 94 -7 -7 1012.6 1011.7
06 25.04 В 9
{14}
40 км 10/10 300 м
[]
+0.5 -0.6 92 -7 -7 1013.3 1012.4 +0.4 +2.6
09 25.04 В 12
{17}
5000 м дождь 10/10 180 м
[Frnb]
+0.3 -0.1 97 -9 -9 1013.1 1012.2 5
12 25.04 В 11-17
{17}
3000 м слаб. дождь 10/10 180 м
[Frnb]
+0.3 0.0 98 -8 -8 1013.8 1012.9 4
15 25.04 В 12-20
{20}
4000 м слаб. дождь 10/10 150 м
[Frnb]
+0.6 +0.3 98 -8 -8 1011.4 1010.5 2
18 25.04 В 16-26
{26}
3000 м дождь 10/10 150 м
[Frnb]
+1.2 +0.9 98 -8 -8 1007.2 1006.3 +0.2 +1.3 5
21 25.04 В 12-17
{20}
2500 м слаб. морось {дождь} 10/10 150 м
[Frnb]
+1.0 +0.7 98 -8 -8 1006.7 1005.8 2
00 26.04 В 10-15
{17}
1700 м морось 10/10 100 м
[]
+0.6 +0.5 99 -8 -8 1005.8 1004.9 0.0
03 26.04 В 6
{12}
1800 м дымка 10/10 50 м
[]
+0.5 +0.5 100 -6 -6 1004.5 1003.6 0.0

 

Местоположение метеостанции Сен-Пьер (Онтарио, Канада): широта 46.77 долгота -56.16 высота над уровнем моря 24 м.

В архиве по умолчанию представлена погода в Сен-Пьере за последнюю неделю. Архивные данные за месяц целиком и за предыдущие месяцы, начиная с января 2011 года, Вы можете получить, выбрав интересующий диапазон дат из раскрывающегося списка и нажав кнопку "Ввод!".


*Определитесь, кто Вы:
робот инопланетянин человек

Внимание! Время в таблицах - всемирное. Для получения местного времени необходимо прибавить поправку, которая равна -4 ч.

Смотрите также архив погоды в соседних городах и на ближайших метеорологических станциях:

Погода в Сейнт-Лоренс (Ньюфаундленд и Лабрадор, Канада) (62 км)
Погода на Острове Сагона (Ньюфаундленд и Лабрадор, Канада) (73 км)
Погода в Уинтерленде (Ньюфаундленд и Лабрадор, Канада) (76 км)
Погода в Берджео (Ньюфаундленд и Лабрадор, Канада) (145 км)
Погода в Аргентии (Ньюфаундленд и Лабрадор, Канада) (174 км)
Погода в Кейп-Рейсе (Ньюфаундленд и Лабрадор, Канада) (237 км)
Погода в Порт-Окс-Баски (Ньюфаундленд и Лабрадор, Канада) (243 км)
Погода в Баджере (Ньюфаундленд и Лабрадор, Канада) (245 км)
Погода в Терра Нова (Ньюфаундленд и Лабрадор, Канада) (258 км)
Погода в Авр-Сен-Пьере (Квебек, Канада) (259 км)

Пояснения к столбцам:

Ветер - указаны скорость ветра в м/с - средняя за 10 мин, порывы в срок и между сроками (в фигурных скобках) и направление, откуда дует ветер: С - северный, СВ - северо-восточный, В - восточный, ЮВ - юго-восточный, Ю - южный, ЮЗ - юго-западный, З - западный, СЗ - северо-западный.
Видимость - горизонтальная дальность видимости в метрах или километрах. При видимости от 1 до 10 км при отсутствии осадков обычно наблюдается дымка, при ухудшении видимости до 1 км и менее - туман. В сухую погоду видимость может ухудшаться дымом, пылью или мглою.
Явления - указаны атмосферные явления, наблюдавшиеся в срок или в последний час перед сроком; фигурными скобками обозначены явления, наблюдавшиеся между сроками (за 1-3 часа до срока); квадратными скобками обозначены град или гололедные отложения с указанием их диаметра в мм.
Облачность - указаны через наклонную черту общая и нижняя облачность в баллах и высота нижней границы облаков в метрах; квадратными скобками обозначены формы облаков: Ci - перистые, Cs - перисто-слоистые, Cc - перисто-кучевые, Ac - высококучевые, As - высокослоистые, Sc - слоисто-кучевые, Ns - слоисто-дождевые, Cu - кучевые, Cb - кучево-дождевые. Подробнее классификацию облаков см. в Атласе облаков (PDF).
T - Температура воздуха - температура, измеренная на высоте 2 м над землей.
Td - Температура точки росы - температура, при понижении до которой содержащийся в воздухе водяной пар достигнет насыщения.
f - Относительная влажность воздуха - влажноcть воздуха, измеренная на высоте 2 м над землей.
Te - Эффективная температура - температура, которую ощущает одетый по сезону человек в тени. Характеристика душности погоды. При расчете учитывается влияние влажности воздуха и скорости ветра на теплоощущения человека.
Tes - Эффективная температура на солнце - температура, которую ощущает человек, с поправкой на солнечный нагрев. Характеристика знойности погоды. Зависит от высоты солнца над горизонтом, облачности и скорости ветра. Ночью, в пасмурную погоду, а также при ветре 12 м/с и более поправка равна нулю.
P - Атмосферное давление - приведенное к уровню моря атмосферное давление.
Po - Атмосферное давление - измеренное на уровне метеостанции атмосферное давление.
Tmin - Минимальная температура - минимум температуры воздуха на высоте 2 м над землей.
Tmax - Максимальная температура - максимум температуры воздуха на высоте 2 м над землей.
R - Количество осадков - Количество выпавших осадков за период времени, мм. При наведении курсора мыши на число - период времени, за который выпало указанное количество осадков.
R24 - Количество осадков - Количество выпавших осадков за 24 часа, мм.
S - Снежный покров - Высота снежного покрова, см. При наведении курсора мыши на число - состояние снежного покрова и степень покрытия местности в баллах.